FW4043 Weather Reports


Display with metric or nautical units.
time (UTC)temp
F
wind
direction
speed
MPH
gust
MPH
rain 1hr
in
rain 24hr
in
rain mn
in
humidity
%
barometer
mb
20260505153004 77 114 5.0 11.0 0.00 0.00 0.00 89 1011.1
20260505151506 77 132 2.0 14.0 0.00 0.00 0.00 90 1011.1
20260505124524 73 158 7.0 10.0 0.00 0.00 0.00 91 1010.8
20260505123009 72 134 6.0 9.0 0.00 0.00 0.00 91 1010.6
20260505121516 72 132 7.0 11.0 0.00 0.00 0.00 91 1010.3
20260505120028 72 135 7.0 11.0 0.00 0.00 0.00 90 1010.4
20260505114520 72 166 6.0 11.0 0.00 0.00 0.00 90 1010.4
20260505113024 72 135 6.0 10.0 0.00 0.00 0.00 90 1010.3
20260505111530 72 141 6.0 8.0 0.00 0.00 0.00 90 1010.3
20260505101553 72 222 2.0 6.0 0.00 0.00 0.00 89 1010.4
20260505100050 71 194 2.0 6.0 0.00 0.00 0.00 89 1010.6
20260505094559 71 148 4.0 7.0 0.00 0.00 0.00 89 1010.4
20260505093102 71 161 2.0 6.0 0.00 0.00 0.00 89 1010.6
20260505093002 71 158 3.0 6.0 0.00 0.00 0.00 89 1010.6
20260505091503 71 169 1.0 8.0 0.00 0.00 0.00 89 1010.8
20260505090017 71 161 2.0 7.0 0.00 0.00 0.00 89 1010.8
20260505084517 71 161 1.0 7.0 0.00 0.00 0.00 89 1010.8
20260505083022 71 136 6.0 10.0 0.00 0.00 0.00 90 1010.7
20260505081521 70 132 6.0 9.0 0.00 0.00 0.00 90 1010.8
20260505080024 70 132 6.0 9.0 0.00 0.00 0.00 89 1010.7
20260505074528 70 140 5.0 9.0 0.00 0.00 0.00 89 1011.1
20260505073025 69 132 6.0 11.0 0.00 0.00 0.00 89 1011.2
20260505071534 69 132 6.0 8.0 0.00 0.00 0.00 89 1011.3
20260505070031 69 125 6.0 10.0 0.00 0.00 0.00 89 1011.6
20260505064539 69 121 7.0 9.0 0.00 0.00 0.00 88 1011.7
20260505063049 69 131 6.0 9.0 0.00 0.00 0.00 88 1011.9
20260505061555 69 176 2.0 9.0 0.00 0.00 0.00 87 1012.4
20260505060054 69 138 5.0 8.0 0.00 0.00 0.00 88 1012.1
20260505054503 68 130 6.0 8.0 0.00 0.00 0.00 87 1012.3
20260505053006 68 114 6.0 9.0 0.00 0.00 0.00 87 1012.4
20260505051517 68 134 7.0 9.0 0.00 0.00 0.00 87 1012.6
20260505041506 69 121 6.0 9.0 0.00 0.00 0.00 85 1012.8
20260505040008 69 122 6.0 8.0 0.00 0.00 0.00 85 1012.8
20260505034512 70 126 6.0 8.0 0.00 0.00 0.00 84 1013.1
20260505033050 70 128 6.0 9.0 0.00 0.00 0.00 84 1013.0
20260505031558 71 130 6.0 9.0 0.00 0.00 0.00 83 1013.3
20260505030056 71 135 7.0 10.0 0.00 0.00 0.00 83 1013.0
20260505024606 72 134 7.0 10.0 0.00 0.00 0.00 82 1013.1
20260505023011 73 163 8.0 12.0 0.00 0.00 0.00 82 1013.0
20260505021513 73 146 7.0 14.0 0.00 0.00 0.00 81 1012.9
20260505020014 73 132 9.0 15.0 0.00 0.00 0.00 81 1012.8
20260505014521 73 143 9.0 15.0 0.00 0.00 0.00 81 1012.4
20260505013023 73 172 9.0 13.0 0.00 0.00 0.00 81 1012.5
20260505011541 74 135 8.0 14.0 0.00 0.00 0.00 80 1012.6
20260505010041 74 146 9.0 14.0 0.00 0.00 0.00 79 1012.6
20260505004552 74 150 9.0 15.0 0.00 0.00 0.00 78 1012.5
20260505003056 75 162 9.0 16.0 0.00 0.00 0.00 78 1012.4
20260505001558 75 159 8.0 16.0 0.00 0.00 0.00 77 1012.2
20260505000108 76 161 10.0 16.0 0.00 0.00 0.00 77 1012.3
20260505000001 76 140 10.0 18.0 0.00 0.00 0.00 77 1012.3
20260504234506 77 171 6.0 14.0 0.00 0.00 0.00 77 1012.5
20260504233006 76 155 8.0 18.0 0.00 0.00 0.00 76 1012.7
20260504231509 77 131 9.0 19.0 0.00 0.00 0.00 76 1012.8
20260504230013 77 127 7.0 14.0 0.00 0.00 0.00 76 1013.1
20260504224521 77 178 9.0 16.0 0.00 0.00 0.00 76 1013.0
20260504223029 77 148 11.0 15.0 0.00 0.00 0.00 75 1013.1
20260504221531 77 188 10.0 15.0 0.00 0.00 0.00 75 1013.5
20260504220040 77 135 10.0 19.0 0.00 0.00 0.00 74 1013.7
20260504214544 78 141 8.0 14.0 0.00 0.00 0.00 73 1013.6
20260504213044 77 160 10.0 16.0 0.00 0.00 0.00 74 1014.0
20260504211534 78 181 7.0 19.0 0.00 0.00 0.00 73 1014.1
20260504210029 79 140 9.0 15.0 0.00 0.00 0.00 72 1014.5
20260504204537 79 149 7.0 15.0 0.00 0.00 0.00 71 1014.3
20260504203043 79 139 9.0 16.0 0.00 0.00 0.00 69 1014.5
20260504201558 79 150 6.0 13.0 0.00 0.00 0.00 68 1014.6
20260504200054 80 229 7.0 13.0 0.00 0.00 0.00 68 1014.9
20260504194503 80 186 3.0 14.0 0.00 0.00 0.00 67 1014.9
20260504193007 80 148 6.0 12.0 0.00 0.00 0.00 67 1015.1
20260504191515 80 195 6.0 13.0 0.00 0.00 0.00 68 1015.2
20260504190017 79 182 4.0 13.0 0.00 0.00 0.00 68 1015.2
20260504184520 79 158 4.0 14.0 0.00 0.00 0.00 69 1015.5
20260504183023 79 180 9.0 14.0 0.00 0.00 0.00 69 1015.6
20260504181531 79 215 6.0 15.0 0.00 0.00 0.00 70 1015.7
20260504180027 78 167 8.0 14.0 0.00 0.00 0.00 69 1016.1
20260504174536 78 127 8.0 13.0 0.00 0.00 0.00 70 1016.3
20260504173034 78 168 6.0 15.0 0.00 0.00 0.00 70 1016.4
20260504171539 77 122 9.0 16.0 0.00 0.00 0.00 69 1016.7